Weather in Grand Canyon Village

United States     36°03′25″N   112°08′12″W
temp.,
°C
wind,
m/s
gust,
m/s
humid.,
%
clouds,
%
prec.,
mm/h
press.,
hPa
HPBL,
m
25 may, wed
wed2523:00+13ssw112130 0.0 101111
02:00+11nw112467 0.0 101210
05:00+10e22245 0.0 101410
08:00+19ese33155 0.0 1014606
11:00+23nnw22120 0.0 10121885
14:00+27wnw44110 0.0 10102604
17:00+27wnw54110 0.0 10082612
20:00+20nnw22170 0.0 100912
26 may, thu
thu2623:00+16wsw11215 0.0 101211
02:00+15sse22230 0.0 101311
05:00+13se222631 0.0 101412
08:00+22s331652 0.0 1014388
11:00+27sw451137 0.0 10122951
14:00+30sw7695 0.0 10103957
17:00+29sw1071137 0.0 10084074
20:00+22sw7111692 0.0 1011209
27 may, fri
fri2723:00+16sw232517 0.0 101411
02:00+15ssw333023 0.0 101513
05:00+14sse33320 0.0 101515
08:00+21ssw462397 0.0 1014803
11:00+26sw7913100 0.0 10122394
14:00+29sw101195 0.0 10093898
17:00+27sw111112100 0.0 10083290
20:00+20sw6121878 0.0 1010202
28 may, sat
sat2823:00+16ssw3325100 0.0 101117
02:00+14s4324100 0.0 101021
05:00+12sse4426100 0.0 101033
08:00+20ssw7101991 0.0 10081014
11:00+25sw1214121 0.0 10052353
14:00+26sw1416120 0.0 10022659
17:00+24sw1517145 0.0 10002603
20:00+19sw1017205 0.0 1001582
29 may, sun
sun2923:00+14wsw47420 0.0 1002123
02:00+12ssw46460 0.0 100290
05:00+9ssw46452 0.0 1002110
08:00+15sw77350 0.0 10011081
11:00+20sw1011271 0.0 9982476
14:00+22sw14181749 0.0 9953711
17:00+19wsw1520150 0.0 9963239
20:00+9nne345831 0.0 100278